Location: Florence
(33.9745°N, 118.2481°W)
Time: 20:26:52
(UTC+00:00)

BlueWalker 3 - Pass Details

Date: 23 March 2023
Orbit: 494 x 513 km, 53.2° (Epoch: 06 June)

Event Time Altitude Azimuth Distance (km) Brightness Sun altitude
Exits shadow 12:34:07 13° 322° (NW) 1,486 4.1 -17.0°
Maximum altitude 12:37:24 67° 44° (NE) 536 2.2 -16.3°
Drops below altitude 10° 12:41:10 10° 128° (SE) 1,679 5.1 -15.6°
Sets 12:43:21 0° 131° (SE) 2,557 6.1 -15.1°
